Icon-ios-app
Strava
Free app for Android and iPhone
Download

Pope - Bellevue - Southhill (from mission)

Ride Segment San Francisco, CA
  • Distance 1.7km
  • Avg Grade 8%
  • Lowest Elev 57m
  • Highest Elev 193m
  • Elev Difference 137m
  • Climb Category 4
  • 264 Attempts By 55 People

Fastest Times

Bret Lobree
KOM 5:43 23 Sep 2011
Katie E.
QOM 7:42 8 Oct 2013
Compare Efforts

Men's Leaderboard

Rank Name Speed Power VAM Time
1 Bret Lobree 18.5km/h 325W 1433 5:43
2 Chris Kurrle 18.5km/h 352W Powermeter 1429 5:44
3 Brooks S. 17.1km/h 315W Powermeter 1325 6:11
4 Chris Z. 16.8km/h 276W 1300 6:18
5 Chris Donahue 16.3km/h 310W 1260 6:30
6 Christon DeWan 15.9km/h 319W 1232 6:39
7 Scott Rossi 15.2km/h 284W Powermeter 1173 6:59
8 Elliott N. 15.1km/h 267W 1165 7:02
9 Beckett Madden-Woods 14.5km/h 231W 1122 7:18
10 Jantzen Holt 14.5km/h 228W 1117 7:20
11 james van zoeren 14.4km/h 296W 1114 7:21
12 Ryan Minobe 13.8km/h 282W 1066 7:41
13 Chris Gaither 13.7km/h 248W 1061 7:43
14 Ethan Atkins 13.6km/h 272W Powermeter 1052 7:47
15 Cliff Macfarlane 13.4km/h 207W 1032 7:56
16 James E. 13.3km/h 233W Powermeter 1030 7:57
18 Dave Borowitz 13.2km/h 272W 1020 8:02
19 Aaron N. 13.2km/h 264W 1017 8:03
20 Peter Rigano 13.1km/h 256W 1015 8:04

Join Strava to see the full leaderboard

Women's Leaderboard

Rank Name Speed Power VAM Time
1 Katie E. 13.8km/h 259W 1064 7:42
2 Alena K. 12.7km/h 180W 985 8:19
3 Amy Padula 10.6km/h 163W 815 10:03
4 Ada Wong 10.2km/h - 791 10:21
5 Sf V. 9.9km/h 160W 764 10:43